Miscellaneous Local Product
Issued by NWS Hastings, NE

Home | Current Version | Previous Version | Graphics & Text | Print | Product List | Glossary On
Versions: 1 2 3 4 5 6 7 8 9 10 11 12 13 14 15 16 17 18 19 20 21 22 23 24 25 26 27 28 29 30 31 32 33 34 35 36 37 38 39 40 41 42 43 44 45 46 47 48 49 50
000
AXUS43 KGID 272302
MISGRI

GID CWA HOURLY WEATHER ROUNDUP
NATIONAL WEATHER SERVICE HASTINGS NE
600 PM CDT MON MAR 27 2017

NOTE: "FAIR" INDICATES FEW OR NO CLOUDS BELOW 12,000 FEET WITH NO
SIGNIFICANT WEATHER AND/OR OBSTRUCTIONS TO VISIBILITY.

...SOUTH CENTRAL NEBRASKA...

CITY           SKY/WX    TMP DP  RH WIND       PRES   REMARKS
GRAND ISLAND   SUNNY     54  42  64 E7        29.92F
HASTINGS       MOSUNNY   51  42  71 E5        29.94S HAZE
KEARNEY        SUNNY     57  41  54 SE5       29.92S
ORD            MOSUNNY   58  40  51 VRB7      29.89F
YORK           SUNNY     52  41  66 CALM      29.94F
AURORA         SUNNY     53  41  64 CALM      29.92F
LEXINGTON      SUNNY     59  40  49 SE9       29.89F
HOLDREGE       SUNNY     59  42  53 E10       29.90S
HEBRON         CLOUDY    50  42  74 CALM      29.94S

...NEBRASKA PANHANDLE...

CITY           SKY/WX    TMP DP  RH WIND       PRES   REMARKS
CHADRON        MOSUNNY   66  29  24 NE9       29.78S
ALLIANCE       CLOUDY    65  27  23 SW12      29.79S
SCOTTSBLUFF    CLOUDY    63  29  27 S9        29.78F
SIDNEY         CLOUDY    63  34  33 S12       29.82F

...WESTERN AND NORTH CENTRAL NEBRASKA...

CITY           SKY/WX    TMP DP  RH WIND       PRES   REMARKS
VALENTINE      CLOUDY    59  35  40 SE8       29.85S
AINSWORTH      SUNNY     58  40  50 SE7       29.87S
ONEILL         SUNNY     60  38  45 SE10      29.90S
BROKEN BOW     SUNNY     57  42  57 SE10      29.89S
IMPERIAL       SUNNY     64  34  32 S7        29.84S
NORTH PLATTE   PTSUNNY   64  40  41 S12       29.84F
MCCOOK         SUNNY     64  44  48 SE14G25   29.85S

...EASTERN NEBRASKA...

CITY           SKY/WX    TMP DP  RH WIND       PRES   REMARKS
NORFOLK        SUNNY     58  37  45 S6        29.91F
SO SIOUX CITY  SUNNY     57  40  52 VRB3      29.94R
TEKAMAH        CLOUDY    53  42  66 S6        29.95S
COLUMBUS       SUNNY     55  41  58 E5        29.94F
ALBION         SUNNY     59  37  43 SE6       29.92S
OMAHA EPPLEY   CLOUDY    52  40  63 CALM      29.96S
OFFUTT AFB     CLOUDY    50  40  68 CALM      29.96R
MILLARD        CLOUDY    51  42  71 CALM      29.96S
LINCOLN        MOSUNNY   54  40  59 E6        29.96S
NEBRASKA CITY  CLOUDY    49  39  69 NE8       29.96S
BEATRICE       CLOUDY    54  43  66 N5        29.94F
FALLS CITY     CLOUDY    53  44  71 N9        29.94S

...NORTHERN KANSAS...

CITY           SKY/WX    TMP DP  RH WIND       PRES   REMARKS
GOODLAND       CLOUDY    64  33  31 SE10      29.85S
HILL CITY      CLOUDY    62  44  51 E10       29.89S
NORTON         CLEAR     59  39  47 SE8       29.88S
PHILLIPSBURG   SUNNY     63  41  45 E6        29.90S
HAYS             N/A     62  41  46 NE7       29.89F
RUSSELL        CLOUDY    60  42  51 E9        29.89S
CONCORDIA      CLOUDY    53  46  77 E6        29.93S
SALINA         CLOUDY    55  46  71 E5        29.94S
TOPEKA         CLOUDY    57  49  74 N9        29.92S



USA.gov is the U.S. government's official web portal to all federal, state and local government web resources and services.